Location: Moscow Pond
(43.6842°N, 73.2366°W)
Time: 20:48:31
(UTC+00:00)

Cosmos 1420 Rocket - Pass Details

Date: 08 November 2025
Orbit: 750 x 776 km, 74.0° (Epoch: 10 December)

Event Time Altitude Azimuth Distance (km) Brightness Sun altitude
Rises 10:36:43 0° 203° (SSW) 3,219 7.1 -11.5°
Reaches altitude 10° 10:39:05 10° 205° (SSW) 2,301 6.4 -11.0°
Maximum altitude 10:44:19 76° 291° (WNW) 801 4.0 -10.1°
Drops below altitude 10° 10:49:37 10° 18° (NNE) 2,331 6.6 -9.2°
Sets 10:52:01 0° 20° (NNE) 3,265 7.3 -8.8°
